033  
NZUS93 KARX 191310  
HRRWXR  
 
CURRENT HOURLY OBSERVATIONS ACROSS  
MUCH OF THE UPPER MISSISSIPPI VALLEY  
NATIONAL WEATHER SERVICE LA CROSSE WI  
800 AM CDT FRI OCT 19 2018  
 
   
..SOUTHEAST MINNESOTA
 
 
 
CITY SKY/WX TMP DP RH WIND PRES REMARKS  
ROCHESTER LGT RAIN 49 48 97 S21G31 29.90F  
ROCHESTER/MAYO CLOUDY 50 48 93 S17G32 29.89F  
WINONA CLOUDY 50 46 87 SW8 29.91F  
AUSTIN DRIZZLE 48 46 93 S14 29.91F  
ALBERT LEA MOCLDY 48 48 100 S16G28 29.88F  
DODGE CENTER MOCLDY 48 46 93 S22G28 29.86F  
PRESTON CLOUDY 48 46 92 SW16G24 29.94S  
OWATONNA NOT AVBL  
FARIBAULT NOT AVBL  

 
   
..ELSEWHERE IN MINNESOTA
 
 
 
CITY SKY/WX TMP DP RH WIND PRES REMARKS  
MINNEAPOLIS MOCLDY 54 47 77 SW13G20 29.82F  
INTNL FALLS FAIR 47 43 86 W7 29.61R  
DULUTH FAIR 52 41 66 SW18G26 29.66F  
RED WING CLOUDY 54 46 76 SW14G24 29.84F  
REDWOOD FALLS PTCLDY 53 45 74 SW17 29.80F  
MANKATO MOCLDY 52 48 86 SW14 29.85F  
WORTHINGTON CLOUDY 51 48 89 SW20G29 29.86F  
FAIRMONT CLOUDY 50 47 89 SW15G24 29.86F  

 
   
..SOUTHWEST WISCONSIN
 
 
 
CITY SKY/WX TMP DP RH WIND PRES REMARKS  
LA CROSSE CLOUDY 52 45 77 S13G21 29.94F  
PRAIRIE DU CHI CLOUDY 53 39 59 S10 30.00F  
BOSCOBEL CLOUDY 54 41 61 S13 30.00F  
LONE ROCK CLOUDY 52 41 66 SW6 30.02F  
PLATTEVILLE CLOUDY 47 44 88 SW10 30.05F  
FORT MC COY LGT RAIN 54 42 65 SW8 29.93F  
CAMP DOUGLAS FAIR 54 41 62 SW12 29.93F  
MAUSTON-NEW LI CLOUDY 53 42 65 SW7 29.95F  
VIROQUA CLOUDY 49 45 84 SW8 29.97S  
WIS DELLS CLOUDY 51 39 63 SW15 29.98F  

 
   
..ELSEWHERE IN WISCONSIN
 
 
 
CITY SKY/WX TMP DP RH WIND PRES REMARKS  
MILWAUKEE MOCLDY 49 37 63 SW10 30.06F  
MADISON MOCLDY 50 38 63 SW7 30.03F  
GREEN BAY FAIR 50 41 71 SW9G20 29.92F  
EAU CLAIRE CLOUDY 51 47 86 SW13 29.83F  
BLACK RVR FLS LGT RAIN 49 49 100 SW3 29.92F  
MEDFORD RAIN 47 46 93 SW14G23 29.86R  
WAUSAU LGT RAIN 49 44 83 SW9 29.87F  
WIS RAPIDS CLOUDY 53 39 59 SW13 29.93F  
MARSHFIELD RAIN 49 47 93 SW14 29.89F  
RICE LAKE FAIR 53 30 41 S13G18 29.82S  

 
   
..NORTHEAST IOWA
 
 
 
CITY SKY/WX TMP DP RH WIND PRES REMARKS  
WATERLOO LGT RAIN 50 47 89 SW10 30.02F  
DUBUQUE LGT RAIN 46 41 82 S9 30.06F  
DECORAH CLOUDY 48 46 93 SW9G16 29.97F FOG  
MASON CITY LGT RAIN 49 49 100 S18G29 29.95F  
CHARLES CITY CLOUDY 48 46 93 S12 29.98F FOG  
OELWEIN N/A 48 48 100 SW10 30.02F  

 
   
..ELSEWHERE IN IOWA
 
 
 
CITY SKY/WX TMP DP RH WIND PRES REMARKS  
DES MOINES CLOUDY 50 47 89 S13 30.02F  
IOWA CITY CLOUDY 50 41 71 S8 30.09F  
FORT DODGE CLOUDY 49 48 97 S13 29.95F  
MARSHALLTOWN LGT RAIN 49 47 93 S9 30.03F  
CEDAR RAPIDS CLOUDY 48 42 80 S3 30.05F  

 
   
..NORTHERN ILLINOIS
 
 
 
CITY SKY/WX TMP DP RH WIND PRES REMARKS  
CHICAGO-OHARE CLOUDY 48 32 53 SW15G22 30.12F  
CHICAGO-MIDWAY MOCLDY 48 32 53 SW10G21 30.14F  
MOLINE CLOUDY 50 36 58 S7 30.10F  
ROCKFORD CLOUDY 47 34 60 S12 30.11F  
PEORIA CLOUDY 45 37 73 S9 30.16F  

 
 
NOTE: "FAIR" INDICATES FEW OR NO CLOUDS BELOW 12,000 FEET WITH NO  
SIGNIFICANT WEATHER AND/OR OBSTRUCTIONS TO VISIBILITY. WIND  
SPEEDS ARE IN MILES-PER-HOUR.  
 
 
CLICK HERE TO GO TO PREVIOUS BULLETINS.

The Nexlab WI Page
The Nexlab IA Page
The Nexlab MN Page Main Text Page